Date,TemperatureHighF,TemperatureAvgF,TemperatureLowF,DewpointHighF,DewpointAvgF,DewpointLowF,HumidityHigh,HumidityAvg,HumidityLow,PressureMaxIn,PressureMinIn,WindSpeedMaxMPH,WindSpeedAvgMPH,GustSpeedMaxMPH,PrecipitationSumIn
2012-1-1,68,54,39,52,40,30,77,60,40,30.06,29.82,23,5,23,0.00
2012-1-2,52,42,30,30,22,13,47,45,42,30.03,29.82,18,4,18,0.00
2012-1-3,37,28,21,18,11,5,49,47,46,30.24,30.00,21,4,21,0.00
2012-1-4,46,31,17,24,14,3,71,49,44,30.27,30.00,13,3,13,0.00
2012-1-5,62,45,31,37,24,13,47,44,40,30.03,29.91,11,3,11,0.00
2012-1-6,65,51,36,40,29,17,46,43,39,30.03,29.88,12,3,12,0.00
2012-1-7,70,57,46,49,36,25,75,45,38,30.03,29.88,20,5,20,0.00
2012-1-8,65,55,47,55,43,32,100,69,39,30.15,29.97,11,3,11,0.04
2012-1-9,50,48,47,49,47,44,100,97,82,30.15,29.94,8,3,8,0.50
2012-1-10,56,52,50,54,50,46,100,92,71,30.03,29.88,8,2,8,0.50
2012-1-11,62,55,50,62,53,43,100,95,72,29.91,29.44,24,6,24,0.83
2012-1-12,58,50,44,47,43,24,91,78,45,29.62,29.47,34,7,34,0.00
2012-1-13,44,35,29,24,17,11,48,46,44,29.97,29.59,31,10,31,0.00
2012-1-14,46,35,24,25,20,14,79,54,44,30.15,29.97,17,4,17,0.00
2012-1-15,50,39,29,29,21,15,69,49,43,30.41,30.00,10,2,10,0.00
2012-1-16,50,41,30,30,24,16,74,53,43,30.47,30.24,13,4,13,0.00
2012-1-17,66,56,46,58,46,27,100,70,44,30.27,29.85,24,8,24,0.38
2012-1-18,59,49,38,59,36,19,100,66,43,30.03,29.76,16,4,16,0.20
2012-1-19,50,39,30,30,21,13,76,48,43,30.12,30.00,12,3,12,0.00
2012-1-20,50,44,32,48,37,26,100,77,44,30.09,29.94,8,2,8,0.08
2012-1-21,62,55,48,58,54,48,100,94,73,30.03,29.79,28,5,28,0.59
2012-1-22,53,40,36,53,36,30,100,87,79,30.27,30.00,19,6,19,0.00
2012-1-23,53,44,38,53,44,38,100,100,100,30.21,29.94,12,3,12,0.16
2012-1-24,56,51,43,54,50,43,100,98,81,30.15,29.88,10,2,10,0.00
2012-1-25,66,51,39,46,39,30,100,67,39,30.27,30.09,13,2,13,0.00
2012-1-26,70,59,49,62,54,36,100,82,56,30.09,29.68,17,3,17,0.00
2012-1-27,67,61,44,65,48,26,100,65,39,29.97,29.56,24,7,24,0.62
2012-1-28,65,50,36,41,34,26,87,57,39,30.15,29.94,17,3,17,0.00
2012-1-29,55,44,34,32,23,15,46,44,42,30.30,30.15,13,2,13,0.62
2012-1-30,62,46,32,37,25,14,48,44,40,30.36,30.21,11,2,11,0.00
2012-1-31,66,53,38,41,30,19,45,42,39,30.33,30.18,17,5,17,0.00
2012-2-1,68,58,47,50,40,29,73,54,39,30.21,29.97,15,4,15,0.00
2012-2-2,70,60,52,58,48,30,100,68,38,30.24,29.91,17,4,17,0.29
2012-2-3,58,50,44,38,28,23,52,43,41,30.39,30.24,15,4,15,0.04
2012-2-4,58,51,46,54,43,25,100,76,44,30.27,29.94,7,2,7,0.00
2012-2-5,62,52,42,58,50,37,100,94,79,30.15,29.85,17,4,17,0.09
2012-2-6,45,42,39,38,34,32,87,75,64,30.21,30.06,10,4,10,0.00
2012-2-7,58,45,35,38,32,20,100,64,41,30.12,30.03,10,2,10,0.00
2012-2-8,58,44,35,35,28,20,76,53,41,30.09,30.00,7,2,7,0.00
2012-2-9,51,40,32,29,26,19,76,56,43,30.21,30.06,11,2,11,0.09
2012-2-10,50,42,32,38,33,25,99,69,49,30.12,29.79,7,2,7,0.00
2012-2-11,52,40,25,40,26,8,93,59,43,30.03,29.68,24,5,24,0.00
2012-2-12,44,31,21,24,13,5,49,47,44,30.18,30.03,18,4,18,0.00
2012-2-13,53,37,20,31,18,5,71,46,42,30.21,30.00,13,2,13,0.00
2012-2-14,54,47,39,37,27,20,68,47,42,30.03,29.91,22,4,22,0.00
2012-2-15,64,46,33,45,37,28,100,76,40,30.18,30.00,12,2,12,0.00
2012-2-16,60,52,44,58,45,25,100,80,43,30.18,29.91,10,2,10,0.00
2012-2-17,63,52,46,52,43,31,100,75,40,30.06,29.94,12,2,12,0.00
2012-2-18,66,55,44,40,34,24,72,46,39,30.03,29.82,10,2,10,0.00
2012-2-19,54,45,35,50,42,31,100,92,43,30.06,29.59,26,7,26,0.33
2012-2-20,52,41,31,34,28,18,97,62,42,30.24,29.85,13,3,13,0.08
2012-2-21,60,46,32,39,29,18,79,53,41,30.21,29.91,18,4,18,0.08
2012-2-22,68,57,49,52,45,36,98,66,39,29.91,29.56,26,7,26,0.25
2012-2-23,77,66,53,61,52,43,100,67,37,29.62,29.53,23,7,23,0.04
2012-2-24,72,66,48,66,54,27,93,66,41,29.85,29.50,27,10,27,0.17
2012-2-25,54,46,39,32,25,19,45,44,42,30.21,29.82,28,6,28,0.00
2012-2-26,56,42,30,32,22,12,50,45,41,30.41,30.21,11,3,11,0.00
2012-2-27,52,48,39,52,42,19,100,83,43,30.36,30.21,6,2,6,0.00
2012-2-28,69,56,48,54,44,31,100,69,39,30.36,30.18,14,3,14,0.00
2012-2-29,69,61,51,61,53,30,100,76,42,30.21,29.76,18,6,18,0.00
2012-3-1,80,68,62,61,57,38,82,68,37,29.82,29.71,25,8,25,0.00
2012-3-2,70,61,51,67,57,47,100,89,68,29.88,29.62,22,4,22,0.24
2012-3-3,69,61,53,66,56,40,100,84,60,29.79,29.56,26,4,26,1.29
2012-3-4,55,47,34,44,30,16,94,54,42,29.97,29.59,24,4,24,0.08
2012-3-5,56,47,36,33,26,17,46,44,41,30.41,29.82,26,8,26,0.00
2012-3-6,58,43,30,35,23,12,48,44,41,30.56,30.39,15,4,15,0.00
2012-3-7,69,54,39,48,39,21,79,59,39,30.53,30.33,15,4,15,0.00
2012-3-8,72,61,51,59,50,41,100,70,38,30.36,30.03,17,4,17,0.00
2012-3-9,64,58,46,61,46,25,100,68,40,30.21,30.00,14,4,14,0.21
2012-3-10,59,50,41,35,28,21,45,43,41,30.41,30.21,20,5,20,0.00
2012-3-11,65,51,37,39,31,21,74,47,39,30.50,30.33,11,4,11,0.00
2012-3-12,72,55,44,51,40,29,91,59,38,30.39,30.18,13,2,13,0.00
2012-3-13,75,66,59,60,55,48,93,68,53,30.18,30.06,15,5,15,0.00
2012-3-14,83,66,60,68,57,40,100,77,37,30.18,30.06,13,3,13,0.00
2012-3-15,84,70,58,60,52,39,96,55,37,30.21,30.06,20,3,20,0.00
2012-3-16,84,69,56,61,53,44,100,59,37,30.18,30.03,12,3,12,0.00
2012-3-17,81,66,57,62,56,48,100,71,37,30.18,30.06,10,2,10,0.00
2012-3-18,76,66,59,66,57,47,100,76,38,30.27,30.12,8,2,8,0.04
2012-3-19,84,69,58,67,58,47,100,74,37,30.18,30.00,10,2,10,0.00
2012-3-20,82,70,60,60,55,46,90,62,37,30.18,30.03,15,3,15,0.00
2012-3-21,79,69,59,68,57,50,100,69,43,30.24,30.09,11,3,11,0.00
2012-3-22,80,69,58,69,59,52,100,74,40,30.21,30.06,8,2,8,0.00
2012-3-23,83,70,59,67,60,50,100,74,37,30.12,29.88,12,2,12,0.00
2012-3-24,80,66,60,67,63,44,100,91,39,30.21,29.65,20,4,20,0.54
2012-3-25,69,62,57,60,53,43,100,75,42,29.76,29.59,13,4,13,0.13
2012-3-26,80,67,56,54,49,40,89,55,37,30.00,29.74,13,3,13,0.00
2012-3-27,66,57,48,40,34,26,43,41,39,30.27,30.00,18,4,18,0.00
2012-3-28,77,63,48,58,46,29,73,57,38,30.18,29.82,21,5,21,0.00
2012-3-29,85,72,61,55,50,43,67,48,37,29.88,29.76,14,4,14,0.00
2012-3-30,81,67,57,62,51,34,99,60,37,29.97,29.76,11,3,11,0.00
2012-3-31,77,67,62,67,62,58,100,84,56,29.82,29.68,11,3,11,0.83
2012-4-1,78,65,54,59,53,46,95,69,37,29.85,29.68,11,2,11,0.00
2012-4-2,84,69,60,64,57,52,93,68,39,29.85,29.62,13,4,13,0.00
2012-4-3,78,67,58,63,56,50,100,70,49,29.97,29.82,12,4,12,0.75
2012-4-4,85,71,61,68,61,50,100,76,37,29.88,29.59,12,3,12,0.00
2012-4-5,71,64,53,64,57,49,100,79,57,29.74,29.59,20,4,20,0.09
2012-4-6,64,54,46,49,43,30,95,70,39,30.03,29.71,18,5,18,0.20
2012-4-7,70,53,41,44,38,31,92,60,38,30.21,30.03,11,2,11,0.20
2012-4-8,77,62,49,48,42,35,83,50,37,30.09,29.88,13,2,13,0.20
2012-4-9,74,62,50,46,38,28,56,40,37,30.03,29.79,18,2,18,0.00
2012-4-10,74,62,47,46,38,27,70,41,37,29.91,29.74,23,4,23,0.00
2012-4-11,63,56,44,38,33,23,44,42,40,30.09,29.79,16,4,16,0.00
2012-4-12,64,49,36,39,28,17,71,43,39,30.15,30.06,12,2,12,0.00
2012-4-13,70,54,38,43,35,24,76,49,38,30.18,30.06,10,2,10,0.00
2012-4-14,74,60,42,53,41,28,92,52,37,30.27,30.09,13,3,13,0.00
2012-4-15,77,68,60,62,58,53,100,74,56,30.18,30.06,15,5,15,0.00
2012-4-16,83,70,59,60,54,48,86,59,37,30.18,30.03,16,5,16,0.00
2012-4-17,85,72,61,62,57,48,92,61,37,30.12,29.97,9,3,9,0.04
2012-4-18,65,60,56,58,54,49,100,82,62,30.06,29.97,11,4,11,0.13
2012-4-19,63,58,55,56,55,52,100,90,71,30.03,29.94,10,4,10,0.00
2012-4-20,73,63,56,61,56,54,96,79,60,29.97,29.79,8,2,8,0.00
2012-4-21,80,70,62,65,60,51,100,73,40,29.82,29.62,9,2,9,0.00
2012-4-22,68,58,50,62,55,45,100,89,70,29.65,29.44,19,5,19,0.54
2012-4-23,59,49,41,45,36,28,86,63,41,29.71,29.47,23,5,23,0.54
2012-4-24,66,51,38,40,32,24,68,49,39,29.79,29.68,22,5,22,0.54
2012-4-25,74,60,50,54,46,30,100,62,37,29.91,29.76,12,3,12,0.54
2012-4-26,72,68,63,68,56,46,100,68,45,29.82,29.71,25,6,25,0.67
2012-4-27,85,71,63,67,61,52,100,74,37,30.00,29.76,14,4,14,0.24
2012-4-28,68,63,60,67,57,53,99,80,73,30.09,29.97,12,4,12,0.00
2012-4-29,82,69,60,68,61,54,95,76,59,30.12,30.03,10,3,10,0.00
2012-4-30,84,71,66,72,66,62,100,87,54,30.15,30.03,12,3,12,0.00
2012-5-1,86,76,67,68,64,59,95,68,48,30.12,30.00,13,5,13,0.00
2012-5-2,89,77,68,68,63,55,98,65,37,30.09,30.00,13,4,13,0.00
2012-5-3,87,76,65,69,63,55,100,67,37,30.12,30.00,16,3,16,0.00
2012-5-4,87,76,68,68,60,50,89,62,37,30.06,29.88,16,4,16,0.00
2012-5-5,88,78,68,68,59,49,80,55,37,29.91,29.74,14,4,14,0.00
2012-5-6,79,74,66,63,60,58,79,63,50,29.97,29.82,13,5,13,0.00
2012-5-7,80,71,64,64,58,46,95,68,37,30.00,29.88,11,4,11,0.00
2012-5-8,80,71,65,68,63,58,100,76,56,29.97,29.79,13,4,13,0.25
2012-5-9,75,68,63,69,65,58,100,89,74,29.82,29.62,13,2,13,0.96
2012-5-10,76,66,55,62,52,40,100,66,37,29.91,29.71,13,2,13,0.05
2012-5-11,76,65,55,51,44,37,70,48,37,30.18,29.91,15,3,15,0.00
2012-5-12,77,66,52,56,47,36,78,53,37,30.30,30.12,8,2,8,0.00
2012-5-13,73,66,58,66,59,49,100,80,62,30.18,30.06,12,3,12,0.13
2012-5-14,74,68,65,71,67,63,100,96,77,30.06,29.85,13,4,13,1.11
2012-5-15,82,73,66,70,67,64,100,83,60,29.94,29.82,11,2,11,0.00
2012-5-16,82,73,66,71,67,60,100,82,61,29.94,29.82,10,2,10,0.33
2012-5-17,82,71,66,69,65,59,100,82,60,29.97,29.82,19,3,19,0.00
2012-5-18,78,70,64,64,56,48,87,63,40,30.06,29.94,18,5,18,0.00
2012-5-19,78,68,60,50,48,40,69,49,37,30.09,29.97,15,4,15,0.00
2012-5-20,82,70,56,55,50,43,77,52,37,30.06,29.94,15,4,15,0.00
2012-5-21,86,73,62,62,56,50,81,59,37,30.00,29.79,10,2,10,0.00
2012-5-22,85,73,64,66,60,50,100,66,37,29.91,29.71,24,2,24,0.46
2012-5-23,83,71,61,68,62,52,100,76,37,29.85,29.74,10,2,10,0.04
2012-5-24,88,76,66,70,62,49,100,67,37,29.97,29.82,9,2,9,0.00
2012-5-25,89,76,66,74,64,55,100,68,37,30.09,29.94,10,2,10,0.00
2012-5-26,88,78,68,69,63,53,91,62,37,30.09,29.97,15,4,15,0.00
2012-5-27,85,75,68,70,65,60,92,72,55,30.06,29.97,17,4,17,0.00
2012-5-28,87,76,71,73,69,64,100,80,55,30.03,29.91,20,3,20,0.09
2012-5-29,87,78,71,76,72,67,100,83,61,29.97,29.76,13,2,13,0.95
2012-5-30,90,78,70,75,68,58,100,76,37,29.82,29.71,14,3,14,0.95
2012-5-31,90,79,67,68,62,56,88,60,37,29.85,29.74,12,3,12,0.00
2012-6-1,85,77,69,74,68,63,100,77,54,29.79,29.65,30,6,30,1.00
2012-6-2,78,69,61,69,56,46,100,66,37,29.85,29.71,10,2,10,0.00
2012-6-3,83,70,56,58,52,46,98,57,37,29.91,29.76,13,2,13,0.37
2012-6-4,82,73,65,68,62,55,85,69,53,29.79,29.62,13,2,13,0.00
2012-6-5,77,69,64,63,58,0,90,68,45,29.82,29.65,9,2,9,0.04
2012-6-6,74,66,59,62,56,50,90,72,57,29.94,29.79,15,5,15,0.00
2012-6-7,82,71,60,62,56,49,92,64,37,30.00,29.91,10,2,10,0.00
2012-6-8,86,73,61,65,57,44,100,61,37,30.03,29.91,8,1,8,0.00
2012-6-9,86,73,60,65,56,46,82,59,37,30.03,29.94,9,2,9,0.00
2012-6-10,80,72,63,72,62,50,100,70,37,30.12,30.00,58,2,58,0.00
2012-6-11,79,74,70,76,72,68,100,96,80,30.09,29.94,13,4,13,0.29
2012-6-12,85,76,69,77,73,63,100,92,70,29.97,29.82,15,4,15,0.29
2012-6-13,90,79,68,75,72,67,100,80,58,29.94,29.82,8,3,8,0.12
2012-6-14,84,76,66,71,60,48,80,60,37,30.12,29.65,12,3,12,0.00
2012-6-15,83,74,66,65,59,49,95,63,37,30.18,30.06,16,4,16,0.00
2012-6-16,83,72,62,60,52,46,80,52,37,30.21,30.06,17,4,17,0.00
2012-6-17,84,71,58,63,55,50,83,59,37,30.15,29.94,8,2,8,0.00
2012-6-18,86,74,65,68,62,56,84,67,46,30.06,29.94,11,2,11,0.00
2012-6-19,90,78,66,72,64,58,95,65,37,30.15,30.03,10,2,10,0.00
2012-6-20,93,79,69,73,67,60,97,68,37,30.15,30.00,13,2,13,0.67
2012-6-21,93,81,71,75,69,60,100,70,37,30.06,29.82,11,3,11,0.00
2012-6-22,92,81,72,73,67,59,85,65,37,29.91,29.79,12,4,12,0.00
2012-6-23,94,81,71,74,68,61,91,68,37,29.97,29.82,15,3,15,0.04
2012-6-24,89,78,70,78,72,67,100,84,64,29.97,29.82,15,2,15,0.00
2012-6-25,93,81,73,78,73,70,100,79,53,29.88,29.65,11,3,11,0.00
2012-6-26,84,76,66,73,59,42,100,59,37,29.82,29.68,18,5,18,0.00
2012-6-27,87,72,57,58,53,44,80,53,37,29.94,29.82,14,2,14,0.00
2012-6-28,93,78,62,63,56,48,74,50,37,29.97,29.82,14,3,14,0.00
2012-6-29,102,87,70,71,63,49,70,45,37,29.85,29.71,11,2,11,0.00
2012-6-30,103,88,72,71,67,60,76,52,37,29.85,29.76,8,2,8,4.09
2012-7-1,104,86,71,80,70,54,95,62,37,30.03,29.79,24,3,24,0.12
2012-7-2,92,79,69,72,67,59,100,68,37,30.06,29.88,20,3,20,0.00
2012-7-3,97,84,72,75,67,61,93,60,37,29.97,29.85,23,2,23,0.25
2012-7-4,96,81,70,74,68,61,100,70,37,29.97,29.85,10,2,10,0.00
2012-7-5,100,83,74,75,71,56,99,71,37,29.94,29.79,24,2,24,0.17
2012-7-6,98,88,70,72,66,60,95,52,37,29.94,29.82,10,2,10,0.00
2012-7-7,98,86,76,73,68,62,77,57,37,29.97,29.88,12,3,12,0.00
2012-7-8,100,88,79,73,67,57,69,52,37,29.94,29.76,13,4,13,0.00
2012-7-9,97,84,76,76,67,58,78,59,37,29.91,29.79,19,4,19,0.00
2012-7-10,88,77,72,76,72,65,100,84,63,30.00,29.85,20,2,20,0.41
2012-7-11,88,78,73,79,75,73,100,91,66,30.06,29.94,14,2,14,0.58
2012-7-12,85,76,72,77,74,71,100,95,66,30.12,30.00,10,3,10,0.13
2012-7-13,90,79,74,81,76,70,100,93,64,30.15,30.06,19,3,19,0.00
2012-7-14,92,82,76,83,75,69,100,81,52,30.18,30.06,13,3,13,0.00
2012-7-15,91,82,72,77,72,69,100,76,53,30.18,30.03,9,2,9,0.00
2012-7-16,91,79,71,77,72,65,100,82,55,30.06,29.88,19,3,19,0.74
2012-7-17,92,78,70,76,72,64,100,86,55,29.97,29.82,15,2,15,0.37
2012-7-18,91,80,73,77,72,66,100,79,47,30.00,29.85,9,3,9,0.00
2012-7-19,90,78,70,78,71,66,100,80,53,30.00,29.88,17,4,17,1.00
2012-7-20,88,75,71,76,73,68,100,94,66,29.94,29.85,14,4,14,0.79
2012-7-21,86,78,72,77,73,70,100,87,64,30.03,29.91,15,4,15,0.00
2012-7-22,93,82,73,76,73,63,100,77,42,30.15,29.91,15,3,15,1.66
2012-7-23,92,82,73,75,71,60,100,71,39,30.15,30.00,13,4,13,0.00
2012-7-24,93,81,72,75,71,59,100,75,44,30.03,29.79,17,3,17,0.21
2012-7-25,89,78,71,74,71,66,100,81,57,29.94,29.82,9,2,9,0.04
2012-7-26,94,83,74,77,70,60,100,69,37,29.88,29.74,13,3,13,0.00
2012-7-27,92,81,73,76,70,66,89,69,44,29.91,29.79,14,4,14,0.00
2012-7-28,91,79,70,75,70,60,100,78,40,29.97,29.82,16,3,16,0.00
2012-7-29,91,78,69,73,68,57,100,74,37,30.00,29.85,10,2,10,0.00
2012-7-30,88,75,68,74,69,61,100,83,50,29.97,29.82,25,3,25,0.00
2012-7-31,79,73,68,74,71,67,100,94,68,29.94,29.82,7,2,7,0.04
2012-8-1,88,77,71,74,71,67,100,82,53,30.03,29.76,8,2,8,0.12
2012-8-2,94,81,70,76,69,59,100,72,37,29.91,29.76,13,2,13,0.08
2012-8-3,89,83,75,70,68,63,82,63,45,30.03,29.88,11,3,11,0.00
2012-8-4,89,78,69,77,70,61,100,79,43,30.15,30.00,13,3,13,0.00
2012-8-5,87,77,70,76,71,68,100,83,62,30.18,30.06,16,2,16,0.00
2012-8-6,89,77,72,74,71,68,100,85,55,30.12,29.94,17,3,17,0.00
2012-8-7,85,74,71,76,73,70,100,96,69,30.03,29.91,10,2,10,1.21
2012-8-8,88,77,67,76,72,65,100,86,62,30.00,29.88,17,3,17,1.45
2012-8-9,87,74,66,76,70,66,100,90,65,29.97,29.82,20,2,20,1.62
2012-8-10,81,73,69,75,71,68,100,93,70,29.85,29.76,14,5,14,0.00
2012-8-11,79,74,72,76,72,68,100,93,73,29.91,29.82,12,4,12,0.09
2012-8-12,86,77,69,74,70,65,100,83,58,30.00,29.85,10,2,10,0.00
2012-8-13,86,75,64,70,63,52,100,71,37,30.00,29.88,12,2,12,0.00
2012-8-14,85,72,63,70,64,60,98,77,55,29.94,29.82,17,3,17,0.00
2012-8-15,83,73,67,72,67,64,100,82,62,29.91,29.82,13,2,13,0.04
2012-8-16,85,73,64,68,63,54,100,74,37,30.00,29.88,8,2,8,14.24
2012-8-17,86,71,63,76,67,60,100,87,59,29.97,29.76,15,2,15,2.03
2012-8-18,84,74,67,73,68,65,100,84,56,29.88,29.76,8,2,8,0.00
2012-8-19,76,71,66,71,68,65,100,93,74,29.85,29.76,13,2,13,1.28
2012-8-20,79,71,67,70,68,65,100,90,67,29.91,29.76,8,2,8,0.58
2012-8-21,82,73,67,73,68,64,100,85,59,30.03,29.88,10,2,10,0.00
2012-8-22,80,73,68,73,68,65,100,86,66,30.06,29.97,11,3,11,0.00
2012-8-23,83,73,66,70,67,63,100,81,58,30.09,30.00,12,3,12,0.00
2012-8-24,82,72,64,70,63,51,100,77,37,30.09,30.00,13,3,13,0.00
2012-8-25,82,70,60,63,57,49,98,67,37,30.09,30.00,14,3,14,0.00
2012-8-26,84,70,58,66,60,53,100,74,37,30.15,30.00,8,2,8,0.00
2012-8-27,86,73,64,74,68,60,100,86,60,30.09,29.94,14,3,14,0.05
2012-8-28,80,74,69,77,72,69,100,95,75,30.00,29.88,10,2,10,0.20
2012-8-29,80,75,72,78,73,68,100,95,77,29.97,29.88,10,2,10,0.04
2012-8-30,83,76,72,78,74,72,100,92,73,30.09,29.94,8,2,8,0.00
2012-8-31,91,80,70,79,75,70,100,85,58,30.18,30.06,10,2,10,0.00
2012-9-1,94,80,73,76,73,68,100,81,52,30.09,30.00,16,3,16,0.00
2012-9-2,92,79,71,77,73,65,100,83,53,30.03,29.85,18,2,18,0.00
2012-9-3,87,76,72,78,73,68,100,92,65,29.97,29.88,14,2,14,0.88
2012-9-4,86,75,72,77,74,69,100,95,72,29.97,29.85,18,3,18,0.58
2012-9-5,86,78,73,76,73,71,100,87,65,29.91,29.82,13,4,13,0.00
2012-9-6,87,77,72,77,74,71,100,91,68,29.91,29.82,13,3,13,0.17
2012-9-7,88,77,71,77,72,68,100,86,55,29.94,29.79,8,3,8,0.00
2012-9-8,89,76,70,79,72,66,100,89,64,29.82,29.65,18,3,18,0.20
2012-9-9,78,69,60,72,60,49,100,75,37,29.94,29.76,13,4,13,0.04
2012-9-10,79,68,58,61,54,47,100,65,37,30.12,29.94,10,2,10,0.04
2012-9-11,77,67,59,60,55,47,95,70,37,30.24,30.09,9,2,9,0.00
2012-9-12,77,66,57,60,55,45,100,72,37,30.30,30.18,11,2,11,0.00
2012-9-13,77,65,57,60,55,46,95,71,37,30.27,30.18,10,3,10,0.00
2012-9-14,81,68,59,67,58,50,97,74,37,30.21,30.06,10,2,10,0.00
2012-9-15,84,70,60,66,60,52,100,75,37,30.15,30.00,10,2,10,0.00
2012-9-16,75,69,64,69,66,60,100,91,76,30.09,30.00,9,3,9,0.04
2012-9-17,82,72,65,75,68,65,100,90,67,30.03,29.82,13,4,13,1.50
2012-9-18,78,74,70,76,72,68,100,95,78,29.85,29.65,20,6,20,1.00
2012-9-19,75,68,61,70,61,55,100,78,56,30.06,29.79,21,5,21,0.00
2012-9-20,78,66,56,62,57,49,100,78,38,30.12,29.97,13,2,13,0.00
2012-9-21,80,68,57,67,62,57,100,81,55,30.06,29.91,10,2,10,0.00
2012-9-22,84,73,64,68,63,54,100,75,39,29.97,29.82,16,5,16,0.00
2012-9-23,79,68,59,62,51,39,90,56,37,30.06,29.91,13,2,13,0.00
2012-9-24,72,59,49,48,42,33,85,56,38,30.18,30.03,15,3,15,0.00
2012-9-25,75,61,48,58,50,44,98,70,37,30.18,30.12,12,2,12,0.00
2012-9-26,80,66,56,63,57,50,100,75,37,30.18,30.06,11,2,11,0.00
2012-9-27,82,69,57,68,60,51,100,79,37,30.18,30.00,10,2,10,0.00
2012-9-28,83,73,61,69,63,53,100,74,37,30.06,29.91,14,2,14,0.00
2012-9-29,72,67,64,70,66,58,100,95,81,29.97,29.79,8,2,8,0.00
2012-9-30,74,65,60,65,63,58,100,94,60,29.85,29.76,12,4,12,0.04
2012-10-1,70,64,60,70,64,60,100,100,100,29.82,29.74,13,5,13,0.62
2012-10-2,84,79,70,83,77,70,100,94,74,29.94,29.71,17,3,17,1.41
2012-10-3,83,76,71,75,70,65,100,85,61,30.18,29.88,11,2,11,0.33
2012-10-4,81,71,65,71,66,57,100,87,52,30.18,30.09,11,2,11,0.33
2012-10-5,82,70,60,66,58,47,100,72,37,30.15,29.94,9,2,9,0.00
2012-10-6,84,70,60,66,59,49,100,73,37,29.97,29.82,13,2,13,0.00
2012-10-7,67,58,54,66,56,49,100,92,79,30.06,29.88,24,5,24,0.00
2012-10-8,54,52,47,49,46,43,100,82,75,30.12,30.00,15,6,15,0.00
2012-10-9,58,52,47,53,50,47,100,91,77,30.09,30.00,10,3,10,0.00
2012-10-10,72,58,46,57,50,44,100,78,38,30.09,29.94,14,2,14,0.00
2012-10-11,69,56,47,48,42,33,83,62,39,30.24,30.06,13,2,13,0.00
2012-10-12,74,60,47,56,48,40,100,69,37,30.24,30.09,9,1,9,0.00
2012-10-13,68,56,47,50,43,36,84,62,39,30.39,30.24,13,4,13,0.00
2012-10-14,75,61,48,61,54,43,100,77,56,30.27,29.94,13,2,13,0.00
2012-10-15,77,67,59,68,56,35,100,72,37,29.97,29.68,17,4,17,0.00
2012-10-16,72,58,50,45,39,32,83,51,38,29.91,29.79,12,2,12,0.00
2012-10-17,71,57,47,52,43,32,88,64,38,30.09,29.82,10,2,10,0.00
2012-10-18,77,63,50,63,56,44,100,79,56,29.85,29.71,15,3,15,0.00
2012-10-19,73,63,47,66,50,26,100,69,38,29.76,29.65,20,4,20,0.04
2012-10-20,71,57,47,44,35,26,65,43,38,29.91,29.71,15,3,15,0.00
2012-10-21,69,55,44,43,36,29,74,51,39,30.09,29.88,12,2,12,0.04
2012-10-22,77,58,43,49,42,34,92,59,37,30.18,30.06,6,1,6,0.00
2012-10-23,78,62,48,51,45,36,88,57,37,30.15,30.03,12,2,12,0.00
2012-10-24,80,64,49,61,49,36,100,63,37,30.15,30.00,8,2,8,0.00
2012-10-25,79,65,54,62,52,43,100,66,37,30.12,30.00,11,2,11,0.00
2012-10-26,74,64,57,63,56,45,100,76,37,30.03,29.82,18,5,18,0.00
2012-10-27,70,64,61,61,57,40,92,80,40,29.85,29.59,19,6,19,0.00
2012-10-28,71,62,53,48,42,30,67,48,38,29.65,29.53,17,6,17,0.00
2012-10-29,54,50,46,31,28,25,44,43,42,29.62,29.44,26,6,26,0.00
2012-10-30,53,47,41,32,26,22,65,44,42,29.62,29.35,24,8,24,0.00
2012-10-31,62,48,37,38,27,20,77,44,40,29.74,29.59,18,4,18,0.00
2012-11-1,61,40,33,37,29,21,87,68,41,29.82,29.71,19,2,19,0.00
2012-11-2,71,52,36,44,30,17,46,42,38,29.91,29.74,20,3,20,0.00
2012-11-3,68,52,36,42,32,19,78,48,39,30.03,29.88,10,2,10,0.00
2012-11-4,63,53,44,44,37,25,77,57,40,29.94,29.82,8,3,8,0.04
2012-11-5,60,49,42,41,31,0,76,52,41,30.03,29.88,15,4,15,0.00
2012-11-6,48,41,35,31,25,18,75,52,43,30.03,29.82,14,5,14,0.00
2012-11-7,55,41,32,35,28,20,93,63,42,29.85,29.74,11,2,11,0.00
2012-11-8,64,49,36,40,34,23,100,62,40,30.06,29.53,11,2,11,0.04
2012-11-9,68,50,34,42,29,16,72,45,39,30.18,30.06,13,2,13,0.00
2012-11-10,72,51,37,45,29,18,51,43,38,30.27,30.18,10,2,10,0.00
2012-11-12,68,65,63,67,61,54,100,88,74,30.24,30.09,12,3,12,0.00
2012-11-13,64,51,42,62,46,36,100,83,64,30.30,30.06,16,5,16,0.12
2012-11-14,51,44,36,38,29,24,89,58,43,30.39,30.24,18,6,18,0.12
2012-11-15,45,41,37,41,34,22,100,77,44,30.27,30.15,18,5,18,0.54
2012-11-16,57,46,37,39,31,22,79,59,41,30.27,30.18,12,3,12,0.12
2012-11-17,57,47,37,34,29,22,71,51,41,30.39,30.27,18,6,18,0.00
2012-11-18,58,50,44,42,33,24,72,52,41,30.36,30.18,20,7,20,0.00
2012-11-19,63,54,48,44,37,30,68,53,40,30.21,30.06,18,6,18,0.00
2012-11-20,62,50,42,44,37,27,81,64,40,30.12,29.97,9,2,9,0.00
2012-11-21,63,50,40,44,36,25,98,61,40,30.24,30.00,14,3,14,0.00
2012-11-22,64,49,37,39,27,18,45,43,40,30.18,30.06,12,3,12,0.00
2012-11-23,68,52,34,42,30,10,46,42,35,30.09,29.82,14,3,14,0.00
2012-11-24,56,48,35,33,27,16,46,43,41,30.06,29.82,14,4,14,0.00
2012-11-25,53,38,23,31,19,6,49,45,42,30.12,29.94,13,2,13,0.00
2012-11-26,64,50,36,39,28,17,46,43,40,30.12,30.00,10,2,10,0.00
2012-11-27,55,51,47,52,38,26,100,65,41,30.15,30.03,13,4,13,0.09
2012-11-28,55,44,33,47,32,18,100,64,41,30.30,30.12,10,3,10,0.00
2012-11-29,57,43,32,33,27,19,81,55,41,30.41,30.27,10,2,10,0.00
2012-11-30,63,48,33,38,26,15,63,44,40,30.33,30.18,12,2,12,0.00
2012-12-1,68,53,40,49,37,28,89,58,39,30.33,30.21,8,1,8,0.00
2012-12-2,70,56,46,54,43,36,100,64,38,30.33,30.18,13,2,13,0.00
2012-12-3,73,60,51,66,55,36,100,84,38,30.24,30.15,13,3,13,0.00
2012-12-4,72,62,52,57,50,39,96,66,38,30.27,30.12,12,3,12,0.00
2012-12-5,73,62,56,57,48,33,97,64,38,30.12,30.00,15,5,15,0.00
2012-12-6,56,50,48,37,28,27,50,43,41,30.21,30.09,13,5,13,0.00
2012-12-7,51,49,47,51,39,26,100,73,43,30.12,29.94,8,3,8,0.16
2012-12-8,68,60,51,66,56,51,100,89,68,30.00,29.91,11,3,11,0.04
2012-12-9,72,62,52,64,58,50,100,88,69,30.06,29.88,10,2,10,0.04
2012-12-10,71,65,60,64,60,56,100,87,64,29.94,29.65,17,6,17,0.04
2012-12-11,64,61,49,63,55,27,100,83,40,30.06,29.68,12,4,12,0.04
2012-12-12,49,46,41,41,29,24,92,55,43,30.21,30.06,14,6,14,0.09
2012-12-13,53,44,38,38,31,19,99,64,42,30.30,30.12,25,6,25,0.12
2012-12-14,59,43,31,36,24,15,69,47,41,30.30,30.12,6,2,6,0.00
2012-12-15,59,48,38,36,30,18,74,51,41,30.27,30.03,8,2,8,0.00
2012-12-16,58,55,52,57,51,30,100,89,42,30.06,29.82,6,2,6,0.29
2012-12-17,59,58,55,59,58,55,100,100,100,29.97,29.62,15,4,15,0.67
2012-12-18,63,55,42,59,44,22,100,71,40,29.88,29.59,20,6,20,0.50
2012-12-19,68,52,41,42,30,22,63,43,39,30.03,29.82,10,3,10,0.50
2012-12-20,63,52,43,63,41,26,100,68,41,30.06,29.50,31,6,31,0.50
2012-12-21,48,42,36,37,23,18,68,47,43,29.82,29.56,30,10,30,0.50
2012-12-22,55,40,27,32,20,9,51,45,42,30.03,29.79,13,4,13,0.50
2012-12-23,58,43,27,35,23,10,73,45,41,30.09,29.94,11,3,11,0.50
2012-12-24,56,48,46,56,36,25,100,67,43,29.97,29.82,13,4,13,0.50
2012-12-25,64,57,51,64,53,42,100,88,70,30.03,29.82,11,4,11,0.05
2012-12-26,64,50,39,60,44,23,100,81,44,29.91,29.38,27,10,27,1.12
2012-12-27,54,41,33,31,26,18,76,55,42,30.00,29.62,16,4,16,0.00
2012-12-28,45,38,30,30,24,17,77,56,44,30.09,29.85,11,3,11,0.00
2012-12-29,52,44,37,47,37,18,100,78,44,29.94,29.65,15,5,15,0.53
2012-12-30,49,36,26,27,19,0,77,51,43,30.30,29.85,12,2,12,0.53
2012-12-31,55,43,30,31,23,12,60,45,42,30.30,30.06,17,4,17,0.00
2013-1-1,54,51,48,54,43,26,100,78,43,30.15,29.85,14,4,14,0.30